Volver al catálogo

ARIANE 2 DEB

LostGTO
NORAD 27028·DEBRIS·🇫🇷 France

Lanzado Jan 27, 1989 desde Guiana Space Centre

Loading…

TLE

ObsoletoSource: Space-Track

Época: Feb 21, 2002, 19:12 UTC

1 27028U 89006H   02052.80067316 +.00002112 +00000-0 +17746-1 0  9994
2 27028 007.9744 276.9476 7172642 176.3260 196.7569 02.27297895003497

Sigue ARIANE 2 DEB en tiempo real con AllMySat

Download on the App Store